Temperature
18 17 16 15 15 15 14 14 14 14 14 14 13 13 13 12 12 11 11 11 11 11 12 12 13 13 13 13 13 13 13 13 13 14 14 14 14 13 13 13 13 13 13
19 18 16 15 15 15 14 14 14 14 14 14 12 12 12 11 11 11 11 11 11 11 11 12 13 13 13 13 13 12 13 13 13 14 14 13 13 13 13 13 12 12 12
19 18 17 15 15 15 15 14 14 14 14 13 11 11 11 11 11 11 11 11 11 11 12 12 13 13 13 13 13 12 13 13 13 13 13 13 13 13 13 13 12 12 12
19 18 17 16 15 15 15 14 14 15 14 13 12 11 11 11 11 11 12 12 13 13 13 13 13 13 13 13 13 12 13 13 13 13 13 13 13 13 13 12 12 12 12
19 18 17 16 15 15 15 15 15 15 15 14 13 12 11 11 12 12 13 13 14 14 14 14 14 13 13 13 13 12 12 13 13 13 13 13 13 13 12 11 11 12 12
19 18 17 16 15 15 15 15 15 15 15 14 13 13 12 12 12 13 13 14 14 14 14 14 14 13 13 13 13 13 13 13 13 13 13 13 13 13 12 11 11 12 12
19 18 17 17 16 15 15 15 15 15 15 15 14 13 13 12 13 13 13 14 14 14 14 14 14 14 14 13 13 13 14 14 14 14 14 14 13 13 12 11 11 11 12
19 18 18 17 16 16 15 15 15 15 16 15 15 14 13 13 13 14 14 14 14 14 14 14 14 14 14 14 14 14 14 14 14 14 14 14 14 14 13 13 12 12 12
19 19 18 18 17 16 16 16 16 16 16 16 16 15 14 14 14 14 14 14 14 14 14 14 14 14 14 14 14 14 14 14 14 14 14 14 14 13 13 13 13 13 13
19 18 18 18 18 17 17 16 16 16 16 16 16 15 15 14 14 14 14 14 14 14 14 14 14 14 14 14 14 14 14 13 13 13 13 13 13 13 13 13 13 12 12
18 18 18 18 18 17 17 17 16 16 16 16 15 15 15 14 14 14 14 14 14 14 14 14 14 14 14 13 13 13 13 13 13 13 13 12 12 12 12 12 12 12 12
19 19 18 18 18 17 17 17 16 16 16 15 15 15 14 14 14 14 14 14 14 13 13 13 13 13 13 13 13 13 13 12 12 12 12 12 12 12 12 12 12 12 12
20 19 19 18 18 17 17 17 16 16 15 15 14 14 14 14 14 14 13 13 13 13 13 13 13 13 13 13 13 12 12 12 12 12 12 12 12 12 12 12 12 12 12
20 20 19 19 18 18 17 17 16 15 15 15 14 14 14 14 13 13 13 13 13 13 13 12 12 12 12 12 12 12 12 12 12 12 12 12 12 11 12 12 12 11 12
20 20 19 19 18 18 17 16 16 15 15 14 14 14 13 13 13 13 13 12 12 12 12 12 12 12 12 12 12 12 12 12 12 12 12 12 12 11 11 11 11 11 11
21 20 19 19 18 17 17 16 15 15 15 14 14 14 13 13 13 12 12 12 12 12 12 12 12 12 12 12 12 12 12 12 12 12 12 12 11 11 11 10 10 10 10
20 20 19 18 18 17 16 15 15 15 14 14 14 13 13 13 12 12 12 12 12 12 12 12 12 12 12 12 12 12 12 12 11 11 11 11 10 10 10 10 10 10 10
20 20 19 18 17 16 16 15 15 14 14 14 14 13 13 13 12 12 12 12 12 12 12 11 11 11 11 11 11 11 11 11 11 10 10 9 9 9 9 9 9 9 9
19 19 18 18 17 16 16 15 15 14 14 14 13 13 13 13 12 12 12 11 11 11 11 11 11 10 10 10 10 10 10 10 10 9 9 9 9 9 9 9 9 9 9
19 18 17 17 16 16 15 15 14 14 14 13 13 13 13 12 12 12 11 11 11 11 10 10 10 9 9 8 8 9 9 9 9 8 8 8 8 8 8 8 8 8 8
17 17 17 16 16 16 15 15 14 14 13 13 13 12 12 12 11 11 11 11 10 10 9 9 8 8 7 7 7 7 8 8 8 7 7 7 7 7 7 6 6 6 6
16 16 16 16 15 15 15 14 14 14 13 13 12 12 12 11 11 11 10 10 9 9 8 7 7 7 6 5 5 5 5 6 6 6 5 5 5 5 5 5 5 5 4
15 15 15 15 14 14 14 14 13 13 12 12 12 11 11 11 10 10 10 9 8 8 7 6 6 6 5 5 4 3 2 1 1 3 3 4 4 4 4 4 4 3 2
14 14 14 14 13 13 13 13 13 13 12 12 11 11 11 10 10 9 9 8 7 6 6 5 5 4 4 4 3 2 1 0 -0 -1 1 2 3 3 2 2 2 1 0
13 13 13 13 13 13 13 13 13 12 12 11 11 10 10 9 9 8 8 7 6 5 5 4 4 4 3 3 2 2 1 0 -1 -2 -2 -2 -0 1 1 1 1 0 -1
12 12 12 12 12 12 12 12 12 12 12 11 10 10 9 9 8 8 7 6 5 5 4 4 3 3 3 2 2 1 0 -1 -2 -2 -3 -3 -3 -3 -2 -1 -0 -1 -2
Wind_Speed
8 13 22 20 18 17 16 15 13 12 11 10 10 9 9 9 9 8 7 5 5 5 6 6 5 4 4 6 6 6 5 5 4 4 5 5 5 4 2 1 2 2 1
13 17 22 20 19 18 17 15 13 12 11 10 10 9 9 9 8 7 6 5 4 4 5 6 7 6 5 7 7 5 4 3 2 3 5 6 7 7 5 3 1 1 1
17 18 21 20 19 18 17 15 13 12 11 10 10 9 9 9 8 7 6 5 4 3 3 4 5 6 6 6 5 3 2 1 2 4 6 6 8 9 8 6 4 3 3
16 17 18 20 19 18 17 15 13 12 11 10 10 10 9 9 8 7 6 5 4 3 3 3 3 4 4 3 2 1 1 2 4 6 7 8 9 8 8 8 7 7 6
12 16 18 21 20 19 17 15 13 12 11 11 10 10 9 8 8 7 6 4 3 2 2 1 1 1 2 2 2 3 4 5 5 7 8 9 9 9 8 9 8 8 8
11 14 19 21 20 19 17 16 14 12 11 11 10 9 8 8 7 6 6 4 3 2 1 0 1 1 3 4 5 6 7 7 5 6 9 10 9 11 11 10 9 9 10
11 13 18 21 20 19 18 16 14 13 12 11 10 9 8 7 7 6 6 5 3 2 1 2 2 3 4 5 6 7 8 8 7 7 8 9 10 13 12 12 12 11 12
14 12 17 21 20 19 18 16 15 13 12 11 10 9 7 7 6 6 8 6 4 3 3 3 4 5 6 7 8 9 10 10 10 8 9 10 13 14 14 15 14 14 14
12 10 11 16 18 19 18 17 15 14 13 12 10 8 7 6 6 6 7 7 6 5 5 6 6 7 8 9 10 11 12 12 11 10 11 11 14 15 15 16 16 16 15
10 11 10 12 15 15 16 17 16 15 13 12 10 9 8 8 7 6 7 8 8 8 8 8 8 10 10 12 13 14 14 14 12 12 11 13 16 16 17 17 18 17 17
10 9 11 10 11 14 15 16 16 15 14 13 11 11 10 8 7 7 9 11 11 11 10 10 10 11 12 12 14 15 14 11 12 11 11 15 18 18 18 18 18 18 18
13 12 11 12 11 11 13 12 12 13 13 12 11 10 9 8 7 8 11 13 13 12 11 11 11 11 11 10 12 13 10 11 10 10 11 17 18 19 18 18 18 18 19
13 13 13 13 12 10 7 9 8 9 10 11 11 11 8 6 6 5 5 6 7 8 8 8 9 8 7 7 8 8 9 8 7 9 11 15 17 18 19 19 18 18 19
9 13 14 14 12 11 8 7 7 6 6 6 10 10 7 3 2 2 1 2 3 3 3 4 4 5 6 6 6 6 6 5 6 7 9 13 15 17 18 19 19 18 18
11 12 13 14 14 12 9 7 7 5 5 7 7 8 8 3 3 2 1 2 3 3 3 3 3 4 4 6 7 6 5 6 7 9 10 14 16 17 17 17 17 18 18
9 10 10 12 13 12 10 8 7 5 6 6 5 7 8 6 4 4 4 4 5 7 7 6 5 5 5 4 7 6 6 7 9 11 12 13 15 17 17 18 19 20 20
5 6 8 9 10 11 10 8 6 5 6 5 6 10 11 11 9 6 6 6 5 9 9 7 7 5 6 7 8 8 6 6 8 9 10 11 12 14 19 20 21 22 21
5 5 6 8 9 10 9 8 6 7 8 8 10 12 14 14 13 9 7 6 8 9 6 5 6 5 6 7 7 7 7 6 6 6 7 9 10 11 16 21 22 23 22
6 6 6 8 10 11 12 11 10 10 10 10 11 12 14 15 15 11 6 6 9 6 6 6 5 5 5 7 7 6 7 6 5 4 6 7 9 10 12 18 22 23 23
5 6 8 10 13 15 13 12 12 11 10 9 10 12 15 14 15 12 7 8 8 6 6 6 5 5 4 6 6 7 8 5 3 4 6 5 8 12 15 18 18 19 22
6 8 9 12 12 13 12 9 9 8 8 9 9 13 15 15 15 11 6 6 6 6 6 7 5 5 5 5 5 5 6 5 4 5 7 6 8 11 16 17 17 15 15
7 9 10 12 11 10 10 8 7 8 8 8 7 11 15 15 13 10 7 6 6 6 7 7 6 4 4 5 4 4 5 6 5 9 6 5 7 7 9 13 14 12 14
9 10 11 12 12 13 13 13 12 9 6 5 7 7 9 13 13 11 9 6 6 6 5 5 5 5 4 4 4 4 4 4 6 5 4 5 6 7 7 7 10 12 16
9 10 13 13 14 13 13 14 14 10 8 5 6 6 7 11 11 11 10 8 5 5 5 5 5 3 3 4 3 2 2 4 4 6 5 6 8 8 9 10 9 9 14
11 12 12 13 13 11 11 12 13 11 9 7 7 8 7 6 9 9 9 7 5 4 5 5 5 4 3 3 3 3 3 3 5 5 9 8 8 7 8 8 8 6 11
11 12 12 14 12 11 12 11 14 14 12 11 8 7 5 4 5 6 7 6 5 4 4 4 4 5 4 4 4 4 3 3 6 6 10 14 11 8 9 8 9 8 8
Wind_Direction
160 163 157 155 151 146 141 136 130 126 125 125 120 114 114 112 106 100 94 87 79 68 64 61 59 77 113 123 117 106 95 80 58 30 4 346 333 322 317 50 31 357 177
154 163 160 159 155 150 145 140 135 132 132 133 130 125 124 119 112 108 103 99 94 79 60 54 55 63 91 106 109 112 106 90 43 3 345 335 322 301 270 240 250 321 200
152 162 162 162 158 154 149 145 143 141 140 140 137 135 131 127 123 118 113 107 102 93 66 51 48 58 77 95 101 109 103 44 344 338 338 333 321 298 252 236 238 240 239
154 161 164 164 160 157 154 152 150 149 149 149 144 141 139 136 132 127 120 111 106 100 82 64 55 56 60 71 75 33 328 331 332 330 332 329 324 305 240 233 241 245 243
154 161 166 165 163 161 159 158 157 155 156 155 151 151 149 147 145 140 130 120 116 111 95 68 52 40 17 352 324 308 306 312 321 327 323 322 324 308 257 245 253 257 257
156 161 167 166 166 165 164 163 162 160 161 162 160 160 162 163 159 153 149 143 139 136 127 62 318 308 302 300 298 296 298 306 309 307 306 308 310 306 281 265 262 262 263
159 165 169 170 169 169 168 168 166 165 166 168 168 169 172 172 169 166 167 168 167 183 241 281 293 291 294 292 291 292 295 297 289 279 283 290 297 298 287 275 272 270 268
161 165 172 173 172 172 172 171 171 171 172 173 175 177 178 182 176 179 183 189 196 219 253 278 287 286 285 286 284 285 287 284 282 273 272 276 282 285 280 278 277 275 273
161 163 169 175 174 174 174 174 175 175 176 177 181 182 174 169 181 192 199 211 226 242 257 267 275 280 283 284 285 285 284 281 274 265 269 271 276 278 275 274 274 272 270
164 169 170 173 175 175 176 178 179 179 180 182 185 180 178 186 202 217 222 230 241 251 259 266 273 277 279 282 283 283 283 283 272 266 265 269 274 275 274 273 271 269 268
178 180 176 176 177 177 177 184 183 183 186 188 191 194 197 207 224 243 245 243 246 252 258 267 274 277 280 281 282 284 287 276 270 267 266 268 273 275 275 273 270 267 267
193 192 185 183 182 179 183 184 185 188 193 195 200 206 209 217 233 251 254 246 244 250 260 273 281 285 285 283 287 292 286 282 278 272 272 277 284 286 285 283 276 269 267
194 192 191 189 185 181 183 178 185 191 196 203 210 215 216 222 244 256 254 253 255 263 271 283 294 297 294 290 291 294 292 290 281 280 285 294 303 306 307 307 302 291 282
199 195 192 191 187 186 183 180 183 188 195 202 213 217 203 191 204 212 216 257 270 280 289 299 308 322 330 329 323 318 318 315 308 306 308 320 328 330 327 322 317 312 306
205 201 190 187 188 185 181 182 183 186 190 195 195 196 183 156 157 125 88 53 28 20 17 14 8 4 4 4 3 355 345 343 341 342 336 338 344 348 347 342 337 334 331
203 203 189 183 182 176 177 176 174 172 167 159 155 152 145 129 110 92 69 52 43 43 48 48 32 24 18 7 359 347 340 343 344 344 343 351 359 6 10 11 9 4 358
175 184 181 177 168 168 166 162 152 140 132 115 108 106 104 98 91 82 68 54 42 43 46 44 28 27 22 8 351 341 338 340 343 341 352 7 7 13 18 14 9 4 359
151 147 158 161 150 148 140 128 115 105 100 95 92 88 87 86 85 78 69 55 46 44 37 39 24 18 14 359 340 328 328 330 336 347 8 12 8 15 16 12 8 3 357
153 146 140 136 134 125 113 105 97 94 91 90 88 86 83 80 79 77 66 53 51 46 34 29 27 20 7 351 327 317 317 322 331 7 7 6 10 15 16 6 2 356 353
137 135 128 123 123 119 112 105 98 90 87 84 83 83 81 77 74 73 65 50 48 46 32 21 15 11 5 343 324 316 306 314 339 4 0 1 6 11 9 360 354 348 350
119 124 126 126 128 127 124 118 111 102 97 87 81 79 78 75 71 67 62 49 45 49 37 24 9 2 354 348 341 321 316 331 355 345 352 355 6 5 355 347 342 338 344
128 124 124 127 125 123 120 113 111 111 99 91 83 74 72 71 68 68 62 57 47 45 34 27 22 7 351 6 351 332 337 333 344 335 323 349 358 347 335 334 326 329 337
129 129 127 123 120 119 118 115 113 104 94 83 78 72 66 71 69 67 63 60 50 47 33 21 24 24 352 340 6 40 1 318 313 299 315 336 333 322 319 319 313 323 323
131 123 122 122 122 122 123 127 129 127 121 112 106 92 73 68 67 64 60 57 47 39 28 9 22 8 359 346 340 26 253 256 293 309 307 307 309 312 303 308 306 301 306
128 122 121 119 117 115 115 120 118 114 114 112 104 94 79 63 61 60 57 50 36 25 17 9 0 356 347 331 322 312 298 270 242 271 298 306 306 297 295 292 290 289 297
122 120 121 118 113 112 111 112 119 122 124 120 113 108 91 72 52 46 50 40 27 13 0 353 349 347 337 329 319 311 312 307 309 296 301 308 305 296 289 287 290 289 293
Height
1503 1504 1506 1507 1508 1509 1509 1510 1510 1510 1509 1509 1509 1509 1509 1509 1509 1509 1509 1509 1509 1510 1510 1511 1511 1512 1512 1512 1511 1511 1510 1509 1509 1508 1507 1506 1506 1506 1506 1507 1507 1508 1508
1502 1503 1505 1506 1508 1508 1509 1509 1509 1509 1508 1507 1507 1508 1508 1508 1509 1509 1509 1509 1509 1509 1509 1510 1510 1511 1511 1511 1510 1510 1509 1509 1508 1507 1506 1506 1506 1506 1506 1506 1506 1507 1507
1502 1503 1504 1506 1507 1508 1508 1509 1508 1508 1507 1506 1507 1507 1508 1508 1508 1509 1509 1509 1508 1508 1508 1508 1509 1510 1510 1510 1510 1509 1509 1508 1507 1506 1506 1505 1505 1505 1505 1505 1505 1506 1506
1501 1502 1503 1505 1507 1507 1508 1508 1508 1507 1507 1506 1507 1507 1508 1508 1508 1509 1508 1508 1508 1507 1507 1508 1508 1509 1509 1509 1509 1509 1508 1507 1507 1506 1505 1505 1504 1504 1504 1504 1504 1504 1504
1501 1502 1503 1505 1506 1507 1507 1508 1508 1507 1507 1506 1507 1507 1508 1508 1509 1509 1509 1508 1508 1507 1507 1507 1507 1508 1508 1508 1508 1508 1507 1506 1505 1505 1504 1504 1503 1502 1503 1503 1503 1503 1502
1501 1502 1503 1504 1505 1506 1507 1507 1507 1507 1507 1507 1507 1507 1508 1509 1509 1509 1509 1508 1508 1507 1507 1507 1507 1507 1507 1507 1507 1507 1506 1505 1504 1503 1503 1502 1502 1501 1501 1502 1501 1501 1500
1501 1502 1503 1504 1505 1506 1506 1507 1507 1507 1507 1507 1507 1508 1508 1509 1509 1509 1509 1509 1508 1508 1508 1507 1507 1507 1507 1507 1506 1506 1505 1505 1504 1503 1502 1501 1500 1500 1499 1500 1500 1499 1498
1501 1501 1502 1503 1504 1505 1506 1506 1506 1507 1507 1507 1507 1508 1508 1509 1509 1510 1510 1510 1509 1509 1509 1508 1508 1508 1507 1507 1506 1506 1505 1505 1503 1502 1501 1500 1499 1498 1498 1498 1497 1497 1496
1501 1501 1502 1503 1504 1504 1505 1506 1506 1506 1506 1507 1507 1508 1508 1509 1510 1510 1510 1510 1510 1510 1509 1509 1509 1508 1508 1507 1506 1506 1505 1504 1503 1502 1501 1499 1498 1497 1496 1496 1495 1495 1494
1500 1501 1501 1502 1503 1503 1504 1505 1505 1506 1506 1506 1507 1508 1508 1509 1510 1510 1510 1510 1510 1510 1510 1509 1509 1508 1507 1507 1506 1505 1504 1503 1501 1500 1499 1498 1497 1495 1494 1493 1492 1492 1491
1499 1500 1500 1501 1501 1502 1503 1504 1505 1505 1506 1506 1507 1507 1508 1509 1509 1510 1510 1510 1510 1510 1509 1509 1508 1507 1506 1505 1504 1503 1502 1501 1499 1498 1497 1495 1494 1492 1491 1490 1489 1488 1488
1496 1498 1498 1499 1500 1501 1502 1503 1503 1504 1505 1506 1507 1507 1508 1508 1509 1510 1510 1510 1509 1509 1508 1508 1507 1506 1505 1504 1502 1501 1499 1498 1496 1495 1494 1492 1491 1489 1488 1487 1486 1485 1483
1494 1495 1496 1497 1498 1499 1500 1502 1502 1503 1504 1505 1506 1507 1507 1508 1508 1509 1509 1509 1508 1508 1507 1506 1505 1504 1503 1501 1499 1498 1496 1495 1493 1492 1490 1489 1487 1485 1484 1483 1481 1480 1479
1492 1492 1493 1495 1496 1497 1499 1500 1501 1502 1503 1504 1505 1506 1507 1507 1507 1508 1508 1508 1507 1506 1505 1504 1503 1502 1500 1498 1497 1495 1493 1492 1490 1488 1486 1485 1483 1481 1479 1477 1476 1475 1474
1488 1489 1490 1492 1493 1495 1497 1498 1500 1501 1503 1503 1504 1505 1506 1506 1507 1507 1507 1506 1505 1504 1503 1502 1501 1499 1498 1496 1494 1492 1490 1489 1487 1485 1482 1480 1478 1476 1474 1472 1471 1469 1468
1484 1485 1487 1489 1491 1493 1494 1497 1499 1500 1501 1502 1503 1504 1505 1506 1506 1506 1506 1505 1504 1503 1502 1500 1499 1497 1495 1493 1491 1489 1487 1485 1483 1480 1478 1475 1473 1471 1469 1468 1466 1464 1462
1480 1481 1483 1486 1488 1490 1493 1495 1497 1498 1500 1501 1502 1503 1504 1505 1505 1505 1505 1504 1503 1502 1500 1499 1497 1494 1492 1490 1487 1485 1483 1481 1478 1475 1473 1471 1469 1467 1465 1463 1461 1460 1458
1476 1477 1479 1482 1485 1488 1491 1493 1495 1497 1498 1499 1501 1502 1503 1504 1504 1504 1503 1503 1502 1500 1498 1496 1494 1491 1488 1485 1483 1481 1478 1476 1473 1471 1469 1467 1465 1463 1461 1459 1457 1455 1452
1472 1473 1475 1478 1482 1485 1488 1490 1492 1495 1496 1498 1499 1501 1502 1502 1503 1503 1502 1501 1500 1498 1496 1493 1490 1487 1484 1481 1478 1476 1473 1471 1469 1467 1465 1464 1461 1459 1457 1454 1452 1449 1446
1468 1470 1472 1475 1478 1481 1484 1487 1490 1493 1495 1497 1498 1499 1500 1501 1501 1501 1501 1500 1498 1496 1493 1491 1488 1484 1480 1477 1474 1471 1469 1466 1464 1462 1461 1460 1458 1455 1452 1449 1446 1443 1440
1465 1466 1468 1471 1474 1477 1480 1484 1487 1491 1493 1496 1497 1498 1499 1500 1500 1500 1499 1498 1496 1493 1490 1487 1485 1481 1477 1473 1469 1465 1463 1462 1459 1458 1457 1455 1452 1449 1446 1443 1439 1436 1432
1461 1463 1465 1468 1471 1475 1478 1482 1486 1489 1492 1495 1496 1497 1499 1499 1499 1499 1498 1496 1493 1491 1488 1485 1482 1479 1475 1471 1467 1461 1458 1455 1455 1454 1451 1448 1446 1443 1439 1436 1433 1429 1425
1459 1461 1463 1466 1469 1473 1477 1481 1485 1488 1491 1494 1495 1497 1498 1498 1498 1497 1496 1494 1491 1489 1486 1483 1480 1476 1473 1470 1467 1465 1460 1455 1449 1444 1443 1441 1438 1435 1432 1429 1426 1423 1419
1456 1459 1462 1465 1469 1473 1477 1480 1483 1486 1489 1492 1494 1496 1497 1497 1496 1495 1493 1491 1489 1486 1484 1481 1478 1475 1472 1468 1466 1463 1462 1458 1452 1442 1436 1434 1431 1428 1425 1422 1419 1415 1412
1454 1458 1461 1465 1469 1473 1477 1480 1483 1486 1489 1491 1493 1495 1495 1495 1494 1493 1491 1489 1487 1484 1482 1479 1476 1473 1470 1466 1463 1460 1457 1454 1450 1444 1432 1425 1423 1421 1418 1415 1411 1408 1404
1453 1457 1461 1465 1469 1473 1476 1480 1483 1486 1488 1490 1492 1493 1494 1493 1492 1491 1489 1487 1485 1482 1480 1477 1474 1470 1467 1464 1460 1456 1453 1449 1445 1439 1430 1421 1415 1412 1410 1407 1404 1401 1397